カタログに戻る

STARLINK-32558

運用中通信VLEO
NORAD 62169·PAYLOAD·🇺🇸 United States

打ち上げ Nov 30, 2024 から Vandenberg Space Force Base

Loading…

次のパス (今後24時間)

TLE

最新Source: CelesTrak SupGP

元期: Sep 15, 2026, 02:23 UTC

1 62169C 24225G   26258.09979167 -.00041789  00000+0 -35023-2 0  2583
2 62169  70.0018  46.9370 0002649 268.3519 156.8422 14.98349573    18

AllMySatでSTARLINK-32558をリアルタイム追跡

Download on the App Store